Christchurch, New Zealand

5:23 AM NZDT on January 24, 2018 (GMT +1300)
Christchurch

Weather History for 93780 - April, 2013

Change the Weather History Date:

Sunday, April 7, 2013

  Actual Average Record
Temperature  
Mean Temperature 47 °F -  
Max Temperature 57 °F 59 °F - ()
Min Temperature 37 °F 41 °F - ()
Degree Days  
Heating Degree Days 18    
Moisture  
Dew Point 40 °F    
Average Humidity 77    
Maximum Humidity 100    
Minimum Humidity 44    
Precipitation  
Precipitation 0.00 in - - ()
Sea Level Pressure  
Sea Level Pressure 30.30 in    
Wind  
Wind Speed 4 mph ()    
Max Wind Speed 7 mph    
Max Gust Speed -    
Visibility 6.2 miles    
Events Rain    
T = Trace of Precipitation, MM = Missing Value Source: Averaged Metar Reports

Daily Weather History Graph

Daily Weather History Graph

Search for Another Location

Airport or City:

Trip Planner

Search our weather history database for the weather conditions in past years. The results will help you decide how hot, cold, wet, or windy it might be!

Date:

Astronomy

Apr. 07, 2013 Rise Set
Actual Time 6:53 AM NZST 6:10 PM NZST
Civil Twilight 6:24 AM NZST 6:38 PM NZST
Nautical Twilight 5:51 AM NZST 7:11 PM NZST
Astronomical Twilight 5:18 AM NZST 7:45 PM NZST
Moon 4:11 AM NZST (4/7) 5:14 PM NZST (4/7)
Length of Visible Light 12h 14m
Length of Day
11h 17m
Waning Crescent, 12% of the Moon is Illuminated
Apr 7
Waning Crescent
Apr 10
New
Apr 19
First Quarter
Apr 26
Full
May 2
Last Quarter

Hourly Weather History & Observations

Time (NZST) Temp. Windchill Dew Point Humidity Pressure Visibility Wind Dir Wind Speed Gust Speed Precip Events Conditions
12:00 AM 41.0 °F 38.0 °F 37.4 °F 87% 30.36 in 6.2 mi West 4.6 mph - N/A   Partly Cloudy
1:00 AM 44.6 °F 41.4 °F 42.8 °F 93% 30.36 in 6.2 mi West 5.8 mph - N/A   Mostly Cloudy
2:00 AM 46.4 °F 44.3 °F 41.0 °F 81% 30.36 in 6.2 mi West 4.6 mph - N/A   Mostly Cloudy
2:00 AM 41.0 °F 38.0 °F 37.4 °F 87% 30.36 in 6.2 mi West 4.6 mph - N/A   Mostly Cloudy
3:00 AM 41.0 °F - 39.2 °F 93% 30.36 in 6.2 mi West 2.3 mph - N/A   Mostly Cloudy
4:00 AM 41.0 °F 38.0 °F 39.2 °F 93% 30.33 in 6.2 mi West 4.6 mph - N/A   Scattered Clouds
5:00 AM 41.0 °F 38.0 °F 37.4 °F 87% 30.33 in 6.2 mi West 4.6 mph - N/A   Scattered Clouds
6:00 AM 37.4 °F - 35.6 °F 93% 30.33 in 6.2 mi Calm Calm - N/A   Scattered Clouds
7:00 AM 39.2 °F - 37.4 °F 93% 30.33 in 6.2 mi NNW 1.2 mph - N/A   Partly Cloudy
8:00 AM 39.2 °F - 39.2 °F 100% 30.33 in 6.2 mi Calm Calm - N/A   Partly Cloudy
9:00 AM 46.4 °F - 44.6 °F 93% 30.33 in 6.2 mi NE 1.2 mph - N/A   Partly Cloudy
10:00 AM 51.8 °F - 44.6 °F 76% 30.33 in - North 1.2 mph - N/A   Clear
11:00 AM 53.6 °F - 39.2 °F 58% 30.33 in - ENE 3.5 mph - N/A   Clear
12:00 PM 57.2 °F - 37.4 °F 48% 30.30 in - East 5.8 mph - N/A   Clear
1:00 PM 57.2 °F - 35.6 °F 44% 30.27 in 6.2 mi NE 5.8 mph - N/A   Overcast
2:00 PM 55.4 °F - 35.6 °F 47% 30.27 in - ENE 6.9 mph - N/A   Clear
3:00 PM 55.4 °F - 37.4 °F 51% 30.24 in 6.2 mi NNE 4.6 mph - N/A   Scattered Clouds
4:00 PM 53.6 °F - 37.4 °F 54% 30.24 in 6.2 mi ENE 6.9 mph - N/A   Scattered Clouds
5:00 PM 53.6 °F - 39.2 °F 58% 30.24 in 6.2 mi ENE 6.9 mph - N/A   Drizzle
6:00 PM 51.8 °F - 41.0 °F 67% 30.21 in 6.2 mi NE 5.8 mph - N/A   Light Drizzle
7:00 PM 50.0 °F - 42.8 °F 76% 30.21 in 6.2 mi NE 3.5 mph - N/A   Drizzle
8:00 PM 48.2 °F - 44.6 °F 87% 30.21 in 6.2 mi NE 3.5 mph - N/A   Drizzle
9:00 PM 48.2 °F - 44.6 °F 87% 30.24 in 6.2 mi NE 3.5 mph - N/A Rain Light Rain
10:00 PM 48.2 °F - 44.6 °F 87% 30.24 in 6.2 mi North 2.3 mph - N/A Rain Light Rain